Imperial, CA

10:35 PM PST on January 19, 2017 (GMT -0800)
Imperial County

Weather History for KIPL - September, 2012

Change the Weather History Date:

Tuesday, September 11, 2012

  Actual Average Record
Temperature  
Mean Temperature 84 °F -  
Max Temperature 93 °F 102 °F 116 °F (2005)
Min Temperature 75 °F 74 °F 58 °F (1952)
Cooling Degree Days 19    
Growing Degree Days 34 (Base 50)    
Moisture  
Dew Point 72 °F    
Average Humidity 69    
Maximum Humidity 87    
Minimum Humidity 47    
Precipitation  
Precipitation 0.00 in - - ()
Sea Level Pressure  
Sea Level Pressure 29.84 in    
Wind  
Wind Speed 10 mph (SE)    
Max Wind Speed 14 mph    
Max Gust Speed -    
Visibility 10 miles    
Events      
Averages and records for this station are not official NWS values.
T = Trace of Precipitation, MM = Missing Value Source: NWS Daily Summary

Daily Weather History Graph

Daily Weather History Graph

Search for Another Location

Airport or City:

Trip Planner

Search our weather history database for the weather conditions in past years. The results will help you decide how hot, cold, wet, or windy it might be!

Date:

Astronomy

Sep. 11, 2012 Rise Set
Actual Time 6:23 AM PDT 6:53 PM PDT
Civil Twilight 5:58 AM PDT 7:17 PM PDT
Nautical Twilight 5:29 AM PDT 7:46 PM PDT
Astronomical Twilight 5:00 AM PDT 8:16 PM PDT
Moon 1:57 AM PDT (9/11) 3:55 PM PDT (9/11)
Length of Visible Light 13h 18m
Length of Day
12h 29m
Waning Crescent, 20% of the Moon is Illuminated
Sep 11
Waning Crescent
Sep 15
New
Sep 22
First Quarter
Sep 29
Full
Oct 8
Last Quarter

Hourly Weather History & Observations

Time (PDT) Temp. Heat Index Dew Point Humidity Pressure Visibility Wind Dir Wind Speed Gust Speed Precip Events Conditions
12:53 AM 81.0 °F 85.8 °F 73.0 °F 77% 29.84 in 10.0 mi ESE 13.8 mph - N/A   Overcast
1:53 AM 78.1 °F - 71.1 °F 79% 29.83 in 10.0 mi ESE 11.5 mph - N/A   Overcast
2:53 AM 77.0 °F - 71.1 °F 82% 29.83 in 10.0 mi SE 10.4 mph - N/A   Clear
3:53 AM 77.0 °F - 72.0 °F 84% 29.83 in 10.0 mi SE 9.2 mph - N/A   Clear
4:53 AM 77.0 °F - 72.0 °F 84% 29.83 in 10.0 mi SE 5.8 mph - N/A   Clear
5:53 AM 75.9 °F - 72.0 °F 87% 29.83 in 10.0 mi ESE 4.6 mph - N/A   Mostly Cloudy
6:53 AM 75.9 °F - 72.0 °F 87% 29.85 in 10.0 mi East 4.6 mph - N/A   Mostly Cloudy
7:53 AM 78.1 °F - 73.9 °F 87% 29.86 in 10.0 mi ESE 8.1 mph - N/A   Clear
8:53 AM 81.0 °F 86.2 °F 73.9 °F 79% 29.87 in 10.0 mi ESE 8.1 mph - N/A   Clear
9:53 AM 82.9 °F 89.4 °F 73.9 °F 74% 29.88 in 10.0 mi ESE 8.1 mph - N/A   Mostly Cloudy
10:53 AM 84.9 °F 91.4 °F 73.0 °F 67% 29.88 in 10.0 mi SE 9.2 mph - N/A   Mostly Cloudy
11:53 AM 87.1 °F 94.5 °F 73.0 °F 63% 29.87 in 10.0 mi SSE 8.1 mph - N/A   Scattered Clouds
12:53 PM 89.1 °F 95.0 °F 71.1 °F 55% 29.85 in 10.0 mi SSE 5.8 mph - N/A   Mostly Cloudy
1:53 PM 91.9 °F 98.4 °F 71.1 °F 50% 29.82 in 10.0 mi SE 9.2 mph - N/A   Partly Cloudy
2:53 PM 93.0 °F 99.0 °F 70.0 °F 47% 29.80 in 10.0 mi SSE 11.5 mph - N/A   Mostly Cloudy
4:53 PM 91.9 °F 97.4 °F 70.0 °F 48% 29.79 in 10.0 mi South 11.5 mph - N/A   Clear
5:53 PM 91.0 °F 96.6 °F 70.0 °F 50% 29.79 in 10.0 mi SE 12.7 mph - N/A   Clear
6:53 PM 90.0 °F 95.4 °F 70.0 °F 52% 29.80 in 10.0 mi SE 12.7 mph - N/A   Clear
7:53 PM 87.1 °F 92.8 °F 71.1 °F 59% 29.82 in 10.0 mi SE 10.4 mph - N/A   Clear
8:53 PM 86.0 °F 92.2 °F 72.0 °F 63% 29.85 in 10.0 mi SE 9.2 mph - N/A   Clear
9:53 PM 84.9 °F 90.7 °F 72.0 °F 65% 29.86 in 10.0 mi SSE 9.2 mph - N/A   Clear
10:53 PM 84.0 °F 90.2 °F 73.0 °F 69% 29.86 in 10.0 mi SE 8.1 mph - N/A   Clear
11:53 PM 82.9 °F 88.8 °F 73.0 °F 72% 29.86 in 10.0 mi SSE 5.8 mph - N/A   Clear